Location: ??????
(30.5519°N, 47.7720°E)
Time: 07:49:21
(UTC+00:00)

X-37B - Visible Passes

Search period start: 23 April 2021 00:00
Search period end: 03 May 2021 00:00
Orbit: 380 x 394 km, 45.0° (Epoch: 07 April)

Date Brightness Start Highest point End Pass type
(mag) Time Alt. Az. Time Alt. Az. Time Alt. Az.
23 Apr 3.7 01:46:44 10° N 01:47:48 11° NNE 01:48:53 10° NE visible
25 Apr 3.5 01:25:45 10° NNW 01:27:58 17° NNE 01:30:09 10° ENE visible
26 Apr 3.8 00:28:11 10° N 00:29:20 11° NNE 00:30:28 10° NE visible
27 Apr 2.6 01:05:10 10° NNW 01:08:01 29° NNE 01:10:50 10° E visible
28 Apr 3.4 00:07:56 13° N 00:09:29 17° NNE 00:11:42 10° ENE visible
29 Apr 1.1 00:45:27 15° NW 00:47:58 61° NE 00:51:06 10° ESE visible
29 Apr 3.3 23:51:06 19° ENE 23:51:06 19° ENE 23:52:23 10° E visible
30 Apr 1.8 01:23:30 10° W 01:26:04 23° SW 01:28:40 10° SSE visible
30 Apr 1.6 16:18:37 10° SSW 16:21:24 27° SE 16:22:48 20° E visible
30 Apr 4.0 17:55:12 10° W 17:55:14 10° W 17:55:14 10° W visible
01 May 2.4 00:29:38 22° SSE 00:29:38 22° SSE 00:30:55 10° SE visible
01 May 1.4 16:56:24 10° WSW 16:59:32 52° NW 17:01:18 23° NE visible
02 May 0.6 15:58:00 10° SW 16:01:11 67° SE 16:04:22 10° ENE visible
02 May 3.5 17:35:56 10° WNW 17:38:04 16° NNW 17:39:16 14° N visible
